{"data":{"norad_id":65614,"epoch":"2026-05-25T03:27:43.478208Z","epoch_age_seconds":58456,"freshness":"FRESH","line1":"1 65614U 25207Y   26145.14425322  .00001288  00000+0  93280-4 0  9993","line2":"2 65614  97.4498 213.6273 0002144 150.5070 209.6278 15.05650296 39654","mean_motion":15.05650296,"eccentricity":0.0002144,"inclination_deg":97.4498,"raan_deg":213.6273,"arg_perigee_deg":150.507,"mean_anomaly_deg":209.6278,"bstar":9.328e-5,"rev_number":3965,"period_min":95.639738113531,"perigee_km":548.02495851904,"apogee_km":550.99553365817,"semimajor_km":6927.6472460886,"source":"CELESTRAK","updated_at":"2026-05-25T13:38:20.856937Z"}}